Temp
24 24 24 23 23 22 22 23 22 20 21 19 18 17 17 16 16 15 15 14 15 14 14 15 15 14 14 14 14 13 13 12 12 13 13 11 13 13 13 12 12 13 13
25 25 24 24 23 24 23 20 22 20 18 19 18 17 17 16 16 15 14 14 14 14 15 15 15 15 15 14 14 14 13 13 12 11 12 12 11 12 12 12 12 12 12
24 24 24 24 24 23 23 21 20 20 18 18 18 18 18 17 16 15 15 14 14 15 15 15 15 14 15 14 14 14 12 13 12 11 11 12 11 11 11 11 10 10 10
25 24 24 24 24 22 21 19 19 19 17 17 18 18 18 17 16 16 15 15 15 15 15 15 15 14 14 14 14 14 13 13 12 11 11 12 12 12 11 11 11 11 11
24 24 23 21 21 21 21 20 18 18 16 15 17 17 17 16 17 17 15 15 15 16 16 15 14 15 15 14 14 14 13 13 12 12 12 12 12 12 12 11 11 11 11
23 22 21 20 21 20 19 18 19 17 16 15 16 16 16 16 17 16 15 15 15 15 16 15 14 15 14 14 14 13 13 13 13 11 12 12 11 11 11 10 10 10 11
22 21 20 20 20 20 19 17 16 17 18 14 16 16 17 16 16 16 16 15 15 16 15 15 15 15 14 14 13 13 13 13 12 12 11 11 10 10 9 9 9 8 9
21 20 20 19 19 18 17 16 15 17 18 16 16 17 16 16 16 15 15 15 15 15 15 14 14 14 14 13 13 13 13 12 12 11 10 10 10 10 10 9 9 8 9
23 21 20 19 18 18 17 16 15 16 16 16 16 16 16 16 16 15 15 15 14 14 14 15 14 13 13 13 12 12 12 12 11 11 10 10 10 10 10 9 9 8 8
22 21 20 18 17 17 16 15 15 15 15 16 15 15 16 17 17 16 17 16 15 14 13 14 14 13 12 12 12 12 11 11 11 10 10 10 10 10 10 9 8 8 8
23 22 19 18 18 17 15 15 15 15 15 15 16 16 17 17 17 16 16 15 14 14 14 13 13 12 12 11 11 11 11 11 9 9 9 8 8 8 8 8 9 8 8
21 21 18 17 16 16 15 15 15 14 14 15 16 16 17 17 17 16 16 15 14 14 13 13 13 12 11 11 11 11 10 9 8 8 7 7 7 8 9 9 10 10 9
21 19 17 16 16 16 15 16 15 14 13 14 15 16 16 17 17 15 15 15 15 13 13 12 12 11 10 10 10 10 8 8 8 7 7 7 8 8 9 9 10 10 10
20 18 18 17 16 16 15 15 15 15 15 15 15 16 16 16 16 15 15 14 13 12 12 12 11 10 10 10 9 8 7 7 7 7 7 8 8 8 8 9 9 9 9
20 19 18 18 17 16 14 15 15 15 15 15 15 16 16 16 15 14 14 13 13 13 11 11 10 10 9 7 7 7 7 7 6 6 6 7 7 6 7 8 8 7 8
15 15 17 17 16 15 15 15 15 15 15 15 15 15 15 15 14 14 14 13 12 12 11 10 8 8 6 6 6 7 6 6 7 7 6 6 6 6 6 8 6 6 8
17 16 16 15 15 15 15 14 14 14 14 14 15 15 14 14 13 13 13 12 11 10 10 9 7 6 6 7 7 6 6 6 7 6 5 5 5 5 6 6 6 6 8
16 16 15 15 15 15 14 14 14 14 15 15 14 14 13 13 12 12 11 10 10 9 9 8 6 7 7 6 6 6 6 6 6 6 4 4 4 5 5 5 6 7 7
16 16 16 15 15 15 14 14 14 14 14 14 13 13 12 12 11 11 10 9 8 7 8 7 7 6 6 6 6 6 6 6 6 5 4 4 4 4 5 5 5 6 7
16 16 16 16 15 15 15 15 14 13 13 13 12 12 11 11 10 10 10 10 9 8 8 6 6 6 5 5 5 5 5 5 4 3 3 4 4 4 4 5 5 5 6
15 15 15 15 15 14 14 14 14 13 13 12 11 11 11 10 9 9 9 8 8 7 7 6 6 5 5 5 5 5 5 4 4 4 4 3 4 4 4 5 5 5 6
14 14 14 14 13 13 13 12 12 12 11 10 10 11 10 9 9 9 8 8 8 7 6 6 5 5 5 5 5 4 4 4 4 4 4 4 3 4 4 5 5 5 6
13 13 13 13 13 12 12 12 12 11 10 11 10 10 10 9 9 8 8 8 7 6 6 5 5 4 4 5 4 4 4 3 4 4 4 4 3 4 4 4 5 5 5
12 12 12 12 11 11 10 11 11 10 9 9 8 8 9 8 8 8 8 7 7 6 6 5 4 4 4 4 4 4 4 4 4 4 4 4 3 3 3 4 4 4 5
11 11 11 10 10 10 10 9 9 9 9 8 8 8 8 8 8 7 7 7 6 6 5 5 4 4 4 4 4 4 4 4 4 4 4 4 3 3 3 3 3 4 4
10 10 9 9 8 8 9 9 9 8 8 8 8 8 7 7 7 6 7 6 6 6 5 4 4 3 3 3 3 3 3 4 3 3 3 3 2 2 3 3 3 4 4
Height
1511 1515 1518 1521 1527 1532 1536 1533 1541 1545 1542 1548 1548 1548 1549 1550 1549 1550 1553 1554 1552 1553 1553 1552 1553 1552 1551 1551 1550 1548 1547 1545 1544 1538 1540 1536 1532 1530 1527 1526 1523 1521 1518
1503 1508 1511 1515 1521 1526 1533 1539 1535 1540 1548 1546 1547 1548 1548 1549 1550 1547 1549 1551 1551 1549 1550 1548 1548 1548 1546 1544 1543 1542 1541 1539 1536 1534 1532 1530 1527 1523 1520 1518 1517 1514 1511
1496 1500 1504 1508 1514 1519 1518 1526 1537 1537 1540 1546 1545 1545 1544 1543 1544 1545 1544 1547 1547 1547 1546 1545 1545 1544 1542 1542 1538 1538 1535 1534 1532 1528 1526 1525 1522 1516 1513 1511 1509 1506 1502
1488 1490 1495 1500 1506 1510 1515 1526 1523 1534 1536 1540 1540 1541 1540 1540 1540 1540 1540 1542 1542 1541 1541 1539 1539 1538 1537 1536 1535 1531 1530 1528 1525 1522 1521 1518 1516 1512 1508 1506 1502 1501 1497
1479 1483 1488 1494 1497 1500 1505 1509 1514 1513 1527 1530 1533 1533 1535 1536 1534 1534 1536 1538 1538 1537 1536 1534 1534 1533 1532 1530 1528 1527 1524 1522 1520 1517 1515 1510 1508 1506 1503 1500 1495 1492 1489
1474 1479 1483 1485 1488 1492 1495 1498 1502 1514 1519 1524 1525 1529 1529 1530 1529 1530 1532 1532 1532 1532 1531 1528 1529 1527 1526 1525 1522 1521 1520 1516 1513 1511 1509 1505 1501 1499 1496 1492 1488 1483 1477
1469 1473 1474 1477 1480 1483 1487 1492 1493 1497 1497 1500 1514 1519 1519 1521 1524 1525 1527 1527 1526 1525 1524 1523 1525 1521 1520 1519 1516 1514 1513 1510 1508 1505 1501 1498 1494 1491 1487 1482 1479 1475 1468
1463 1467 1469 1471 1475 1477 1480 1484 1487 1492 1493 1496 1504 1509 1512 1514 1518 1520 1521 1522 1523 1520 1517 1517 1517 1516 1514 1512 1511 1508 1505 1503 1501 1497 1495 1492 1488 1484 1479 1474 1469 1464 1458
1459 1461 1465 1467 1470 1473 1474 1477 1485 1487 1487 1491 1497 1501 1505 1507 1509 1512 1513 1514 1514 1513 1513 1510 1508 1508 1507 1505 1503 1501 1497 1496 1493 1491 1489 1485 1482 1478 1472 1465 1462 1458 1451
1454 1456 1458 1464 1468 1470 1476 1475 1478 1481 1484 1486 1491 1496 1499 1501 1503 1506 1506 1506 1506 1504 1505 1503 1501 1500 1499 1499 1496 1493 1492 1490 1487 1487 1483 1477 1473 1469 1465 1460 1456 1451 1446
1451 1454 1456 1457 1457 1460 1466 1470 1473 1475 1479 1480 1485 1489 1491 1494 1498 1499 1500 1497 1497 1499 1499 1497 1495 1494 1493 1492 1490 1488 1486 1484 1483 1480 1475 1471 1467 1463 1459 1456 1452 1447 1441
1448 1449 1451 1454 1459 1460 1463 1466 1470 1473 1474 1477 1482 1484 1486 1487 1490 1491 1492 1490 1491 1493 1494 1490 1489 1488 1487 1486 1484 1484 1481 1480 1479 1475 1471 1467 1462 1458 1454 1450 1445 1441 1436
1438 1445 1447 1447 1453 1456 1460 1461 1463 1466 1470 1472 1476 1478 1480 1481 1482 1484 1485 1484 1487 1488 1487 1485 1484 1483 1482 1480 1481 1478 1478 1476 1474 1470 1466 1462 1459 1454 1449 1443 1439 1433 1427
1439 1447 1448 1447 1449 1450 1453 1456 1459 1462 1466 1470 1472 1474 1474 1475 1475 1478 1478 1480 1482 1482 1481 1479 1480 1479 1479 1476 1476 1475 1474 1471 1469 1465 1460 1457 1454 1450 1445 1439 1433 1426 1419
1438 1443 1443 1445 1448 1449 1453 1453 1457 1460 1463 1464 1467 1468 1468 1469 1472 1474 1475 1476 1477 1477 1475 1474 1473 1473 1474 1474 1473 1471 1469 1467 1464 1460 1457 1453 1450 1446 1441 1435 1430 1423 1416
1440 1442 1441 1444 1447 1447 1451 1453 1455 1459 1460 1463 1463 1465 1465 1466 1468 1470 1471 1473 1472 1471 1471 1470 1470 1470 1470 1470 1468 1467 1465 1463 1460 1457 1454 1450 1446 1442 1437 1432 1428 1422 1414
1440 1442 1442 1442 1444 1447 1451 1452 1455 1456 1457 1460 1462 1462 1463 1464 1466 1466 1467 1468 1468 1469 1468 1467 1468 1469 1465 1464 1464 1462 1461 1459 1456 1454 1451 1447 1443 1439 1434 1431 1427 1421 1414
1437 1437 1440 1442 1444 1447 1450 1453 1454 1455 1455 1456 1457 1460 1461 1462 1462 1462 1463 1464 1465 1464 1465 1464 1463 1463 1462 1460 1459 1458 1456 1455 1453 1451 1448 1445 1441 1437 1433 1430 1426 1419 1413
1436 1438 1441 1442 1444 1445 1446 1447 1449 1453 1454 1454 1456 1457 1458 1459 1460 1460 1461 1461 1462 1462 1461 1460 1459 1459 1458 1457 1456 1454 1453 1452 1450 1448 1446 1443 1440 1436 1433 1429 1424 1419 1414
1437 1439 1440 1440 1440 1443 1443 1444 1447 1448 1450 1452 1453 1454 1456 1456 1457 1457 1458 1458 1459 1459 1456 1457 1456 1455 1455 1454 1453 1452 1450 1449 1447 1446 1445 1442 1439 1436 1433 1429 1424 1419 1414
1436 1438 1440 1440 1441 1440 1442 1444 1446 1446 1448 1449 1451 1452 1452 1453 1453 1453 1454 1456 1457 1455 1454 1454 1453 1452 1452 1451 1450 1449 1448 1447 1446 1445 1444 1442 1438 1435 1433 1429 1425 1421 1416
1434 1436 1439 1440 1440 1440 1441 1442 1443 1443 1445 1447 1448 1448 1449 1450 1450 1449 1450 1452 1453 1452 1451 1451 1450 1450 1449 1448 1447 1447 1447 1446 1445 1444 1443 1441 1439 1436 1432 1429 1426 1422 1417
1432 1434 1435 1437 1436 1437 1438 1439 1439 1441 1442 1444 1445 1445 1445 1446 1446 1446 1447 1449 1449 1449 1448 1447 1447 1447 1446 1445 1445 1445 1445 1445 1444 1443 1442 1440 1438 1436 1433 1430 1426 1423 1419
1430 1432 1433 1434 1434 1435 1435 1435 1437 1438 1440 1441 1441 1441 1441 1442 1442 1443 1444 1445 1445 1445 1445 1444 1444 1444 1444 1444 1444 1443 1444 1444 1443 1442 1441 1439 1437 1435 1433 1432 1428 1425 1421
1429 1429 1429 1429 1431 1432 1432 1433 1435 1435 1436 1436 1436 1436 1436 1437 1439 1440 1441 1441 1442 1442 1442 1441 1442 1442 1442 1442 1442 1442 1442 1441 1441 1441 1440 1438 1437 1435 1433 1432 1431 1429 1425
1427 1428 1428 1428 1429 1430 1431 1431 1432 1432 1432 1432 1432 1432 1433 1434 1435 1436 1437 1438 1438 1438 1439 1439 1439 1439 1439 1440 1440 1440 1440 1439 1439 1439 1438 1438 1437 1436 1434 1433 1431 1430 1428
Wind_Speed
41 42 41 39 35 31 29 24 21 22 18 20 18 16 16 14 13 13 13 14 13 13 12 11 12 13 13 15 16 19 21 20 21 25 21 22 26 26 27 27 27 28 27
42 44 45 44 39 33 34 28 19 19 21 19 19 18 17 16 15 14 14 14 15 12 10 10 11 13 14 17 18 19 20 20 22 23 27 24 22 27 30 31 29 27 30
44 46 47 48 45 41 42 31 17 14 16 21 22 21 19 18 17 16 14 15 14 13 12 13 15 16 17 18 19 21 20 23 21 23 25 25 25 23 25 26 25 26 26
46 48 50 49 47 45 41 28 26 17 14 24 24 23 21 19 18 16 15 16 15 16 16 16 18 18 18 19 21 23 24 24 22 22 24 25 25 24 23 24 27 26 29
44 47 48 43 43 44 42 41 33 36 36 28 27 26 23 21 19 18 17 18 18 18 18 18 20 19 20 22 22 23 22 22 20 22 25 25 26 26 27 26 28 29 31
35 37 36 37 41 40 40 42 45 26 13 43 35 31 26 25 20 18 19 21 21 21 20 19 21 23 24 25 25 25 25 27 30 28 27 27 26 27 27 27 29 32 38
23 26 29 31 32 34 35 36 42 34 25 46 40 35 32 27 22 20 22 23 23 22 23 24 26 26 26 27 27 27 27 29 30 29 30 29 26 27 29 30 32 32 36
14 18 23 23 25 26 28 34 42 33 29 36 38 35 31 28 24 21 22 22 25 26 24 28 27 26 25 25 29 27 28 28 27 26 24 27 29 32 34 35 38 36 37
10 14 17 17 18 22 26 31 37 29 28 36 37 30 26 25 26 23 25 25 29 27 28 27 24 22 23 24 26 26 23 24 23 23 25 28 29 31 30 29 32 26 32
5 8 9 12 15 15 23 30 36 27 30 34 34 25 22 21 23 28 29 35 38 25 26 25 21 22 23 23 22 21 21 21 23 24 26 28 26 24 23 20 22 26 31
8 9 12 13 14 16 25 32 34 25 29 34 32 29 22 18 22 22 29 27 25 21 25 21 23 22 22 20 19 20 22 21 21 23 25 20 19 20 17 17 22 23 32
13 11 14 15 18 21 26 28 24 22 21 22 23 21 16 19 27 23 21 17 18 19 20 22 22 20 20 19 19 21 19 17 20 22 16 16 18 19 21 24 26 26 30
10 12 15 15 19 19 22 24 18 16 20 20 19 19 22 21 24 20 19 15 15 16 19 19 21 19 19 20 21 19 16 17 20 17 15 17 21 23 25 28 29 29 31
10 12 14 18 19 19 20 19 14 13 12 13 12 18 19 19 16 18 13 12 12 15 20 20 20 21 20 19 16 15 16 19 19 17 18 20 22 22 24 28 29 28 32
12 16 16 15 16 15 19 18 18 16 14 16 16 14 12 13 13 10 10 11 16 20 19 20 19 17 14 11 12 14 17 16 14 16 17 18 20 21 23 26 25 25 29
16 17 15 13 14 17 18 20 18 16 12 13 12 10 9 11 11 11 13 17 19 18 17 16 12 11 8 9 11 12 11 12 14 17 17 18 18 20 22 24 21 21 27
11 8 10 12 13 13 19 24 22 14 11 9 6 9 11 11 10 12 15 15 15 14 12 11 9 9 9 10 10 9 10 14 16 17 17 16 17 18 20 19 19 21 26
12 8 13 13 7 8 13 20 14 11 9 7 11 11 10 10 10 11 11 11 11 10 11 10 9 11 11 8 7 10 13 15 15 15 13 13 14 16 17 18 17 23 25
6 10 14 8 11 9 12 15 16 14 14 14 12 10 9 9 9 9 9 8 8 9 11 11 9 8 7 8 10 12 14 14 13 11 10 11 13 15 16 17 17 19 20
7 10 12 8 7 7 6 7 11 13 13 14 12 12 11 10 9 8 8 7 8 8 8 7 6 7 8 9 11 13 12 9 7 7 8 9 11 13 15 17 17 17 18
5 8 8 9 7 6 7 6 8 12 13 11 12 12 11 10 10 9 9 8 7 6 7 7 7 7 9 11 12 9 6 5 4 4 6 9 11 13 14 15 16 16 15
12 9 8 6 6 6 7 8 10 11 10 12 13 12 11 12 10 10 9 8 8 7 8 8 7 8 10 10 7 4 3 2 3 5 7 8 10 12 13 14 15 15 15
11 10 9 8 8 8 9 10 10 10 10 10 9 11 12 12 11 10 9 8 7 8 9 9 9 10 9 6 4 3 2 2 3 5 6 8 9 11 12 14 15 16 15
7 6 7 7 7 7 8 9 10 10 8 9 9 11 13 12 11 12 10 9 7 8 9 9 9 10 7 5 5 4 3 3 3 4 6 7 8 9 10 11 12 14 15
4 4 4 3 5 7 8 7 8 8 8 8 8 10 12 14 14 14 13 10 8 8 9 9 9 8 7 6 6 5 5 5 4 4 5 6 7 8 9 9 10 11 13
1 0 1 2 2 3 5 6 7 7 6 6 6 8 9 10 11 13 14 13 11 10 9 10 9 9 7 7 6 5 5 5 5 4 3 4 5 6 7 9 10 9 11
Wind_Direction
228 228 230 231 228 230 232 221 236 241 230 241 243 245 251 250 249 248 251 253 251 257 264 275 283 286 290 293 291 289 282 282 279 292 292 296 307 311 314 313 310 307 304
231 231 231 233 230 221 241 242 222 242 245 243 247 251 253 258 259 255 256 255 258 255 260 275 288 290 294 299 297 293 286 283 279 281 295 295 293 304 309 313 309 306 305
233 236 236 236 234 231 230 225 230 246 249 257 252 252 251 251 254 256 252 252 252 259 267 280 287 287 288 296 299 295 288 292 286 282 289 294 295 298 301 305 301 300 303
238 240 240 240 240 236 236 226 207 230 269 260 256 254 253 250 248 251 248 245 250 260 271 278 283 283 287 295 300 303 301 296 288 285 288 293 296 299 300 301 303 301 299
244 244 246 244 244 243 236 222 206 220 236 249 256 253 250 247 245 249 248 252 259 263 271 282 284 286 289 292 294 303 296 298 291 289 288 292 295 298 299 298 299 302 299
248 252 251 251 251 249 243 225 230 212 304 245 241 248 248 250 252 251 251 253 255 264 271 279 283 287 288 290 291 294 291 294 295 291 288 287 293 297 300 300 301 300 300
258 252 250 252 255 254 250 236 216 215 249 238 233 238 244 248 250 251 251 253 260 264 276 282 281 285 288 287 287 291 292 294 289 290 291 292 294 297 299 301 298 294 295
261 255 253 252 252 252 246 231 212 220 254 223 230 240 243 245 246 248 251 261 277 280 282 285 282 285 285 288 291 292 296 293 292 292 285 291 293 298 299 297 296 294 295
259 252 254 251 244 246 239 229 210 235 231 215 229 242 240 239 243 241 248 263 276 277 290 284 283 283 289 287 290 297 299 299 295 291 289 293 293 297 300 297 299 296 296
246 235 228 241 242 238 240 223 219 246 226 224 235 244 250 252 250 248 274 269 278 285 285 279 277 285 285 289 293 295 296 294 295 292 296 303 307 310 312 308 309 302 303
228 222 215 211 198 208 222 221 221 229 229 232 235 243 250 259 279 265 288 272 271 278 271 274 282 287 289 290 293 293 291 295 297 305 312 313 314 319 315 312 312 306 304
202 208 207 201 206 212 218 222 241 257 232 229 241 245 235 244 266 266 273 273 267 265 268 279 284 287 287 292 297 294 293 294 303 313 313 316 318 320 318 320 321 313 313
204 206 194 197 209 214 222 233 242 242 240 238 228 225 243 248 276 266 271 261 261 263 274 283 286 288 291 295 291 288 290 301 307 309 311 318 319 321 323 326 325 322 323
199 194 193 200 208 213 224 229 232 214 211 201 231 253 262 266 259 263 249 263 273 276 283 288 293 294 294 292 285 288 298 305 305 306 313 319 320 323 325 328 328 326 330
172 191 193 197 208 217 217 213 199 201 209 226 238 239 243 250 258 248 264 271 272 278 286 290 293 294 291 280 284 296 305 307 309 312 315 319 320 324 325 329 330 329 335
195 198 195 203 207 211 218 211 211 218 233 225 228 220 235 242 244 250 260 265 270 277 284 285 282 272 254 264 288 298 303 313 316 317 317 321 321 326 326 332 331 332 338
204 240 225 204 196 216 226 219 219 230 226 217 225 268 247 229 235 251 259 267 272 278 278 280 268 260 266 286 294 299 310 314 320 319 319 322 323 328 330 329 332 339 343
259 215 190 182 199 246 228 220 228 244 217 228 237 215 211 229 242 249 254 262 273 273 274 271 261 276 287 289 299 309 315 318 318 318 322 326 330 334 335 332 333 345 351
186 177 177 237 277 238 232 224 224 221 212 206 197 209 222 236 241 246 257 266 272 276 281 275 274 274 279 296 305 312 315 316 317 323 330 335 338 341 339 338 335 342 348
220 233 227 202 173 165 155 173 198 204 202 200 208 217 233 229 235 242 260 274 286 286 288 267 269 278 294 305 312 313 319 320 324 332 333 341 345 346 343 346 346 345 348
232 163 145 147 150 152 158 179 203 203 207 215 214 229 232 233 233 245 257 262 269 275 281 270 280 292 301 306 308 312 319 323 335 339 341 341 346 348 349 351 352 352 352
168 173 190 202 198 204 215 226 217 214 216 214 221 240 242 235 242 252 251 264 273 276 274 272 276 290 302 303 296 295 312 326 339 338 339 341 342 346 351 354 356 360 359
198 205 218 230 236 238 240 240 226 211 220 235 237 249 249 240 243 248 248 264 270 275 275 270 277 292 302 289 266 249 221 271 317 334 341 346 346 347 355 355 357 360 4
203 228 241 247 249 236 221 221 229 229 237 237 245 250 251 248 251 247 251 264 271 275 273 269 271 285 280 260 246 239 246 270 301 332 345 353 348 349 355 3 2 4 7
224 230 237 237 230 226 233 226 233 241 248 244 254 264 264 259 250 243 245 255 260 268 272 264 268 269 261 242 232 237 254 268 283 308 337 350 352 356 357 5 11 11 17
148 57 123 148 192 219 229 232 236 238 243 247 253 259 254 246 238 236 245 246 249 257 266 263 261 258 245 221 225 242 264 276 275 277 307 345 356 359 360 5 11 18 23